Location: Allos
(44.2333°N, 6.6333°E)
Time: 08:48:11
(UTC+00:00)

DIWATA 2B (PO-101) - Visible Passes

Search period start: 09 May 2021 00:00
Search period end: 19 May 2021 00:00
Orbit: 585 x 599 km, 97.9° (Epoch: 08 May)

Date Brightness Start Highest point End Pass type
(mag) Time Alt. Az. Time Alt. Az. Time Alt. Az.
09 May ? 00:30:33 51° NE 00:30:33 51° NE 00:34:16 10° N visible
09 May ? 02:07:08 13° WNW 02:07:08 13° WNW 02:08:19 10° WNW visible
10 May ? 00:39:20 62° NE 00:39:20 62° NE 00:43:05 10° N visible
10 May ? 02:15:55 11° WNW 02:15:55 11° WNW 02:16:18 10° WNW visible
11 May ? 00:48:07 70° N 00:48:07 70° N 00:51:53 10° NNW visible
11 May ? 23:20:19 10° ENE 23:21:30 11° ENE 23:22:47 10° NE visible
12 May ? 00:56:54 68° NW 00:56:54 68° NW 01:00:39 10° NNW visible
12 May ? 23:29:06 13° ENE 23:30:09 14° ENE 23:32:16 10° NNE visible
13 May ? 01:05:42 57° WNW 01:05:42 57° WNW 01:09:24 10° NNW visible
13 May ? 23:37:54 15° E 23:38:50 16° ENE 23:41:28 10° NNE visible
14 May ? 01:14:29 47° WNW 01:14:29 47° WNW 01:18:06 10° NNW visible
14 May ? 23:46:42 19° E 23:47:31 20° ENE 23:50:34 10° NNE visible
15 May ? 01:23:17 38° W 01:23:17 38° W 01:26:47 10° NNW visible
15 May ? 23:55:30 23° E 23:56:13 24° ENE 23:59:35 10° NNE visible
16 May ? 01:32:05 31° W 01:32:05 31° W 01:35:24 10° NNW visible
17 May ? 00:04:17 27° E 00:04:55 29° ENE 00:08:33 10° N visible
17 May ? 01:40:53 26° W 01:40:53 26° W 01:43:59 10° NW visible
18 May ? 00:13:05 33° E 00:13:38 35° ENE 00:17:28 10° N visible
18 May ? 01:49:41 21° W 01:49:41 21° W 01:52:31 10° NW visible
